Flag Weather past 2 weeks in Alpena, Michigan, U.S.A.

Now
43 °F

Light rain. Fog.


Feels Like: 37 °F
Forecast: 34 / 47 °F
Wind: 10 mph from Southeast

Location: Alpena County Regional Airport

Current Time: Nov 24, 2014 at 12:34:43 AM

Latest Report: Nov 24, 2014 at 12:04 AM


Visibility: 2 mi

Pressure: 29.31 "Hg

Humidity: 89%

Dew point: 40 °F

Location of AlpenaLocation

Historic Weather in Alpena — Graph

°F

Alpena temperature yesterday

Maximum temperature yesterday: 50 °F (at 12:54 PM)
Minimum temperature yesterday: 36 °F (at 3:02 AM)
Average temperature yesterday: 43 °F

Past Weeks' High & Low Weather Summary

 TemperatureHumidityPressure
High50 °F (Nov 23, 12:54 PM)100% (Nov 22, 8:54 PM)30.39 "Hg (Nov 22, 8:54 PM)
Low11 °F (Nov 19, 4:54 AM)51% (Nov 15, 10:54 AM)29.41 "Hg (Nov 23, 10:54 PM)
Average29 °F79%29.90 "Hg
* Reported Nov 8 10:54 PM — Nov 23 10:54 PM, Alpena, Weather by CustomWeather, © 2014

Note: Actual official high and low records may vary slightly from our data, if they occured in-between our weather recording intervals... More about our weather records

Advertising

Alpena weather history for previous 24 hours

 ConditionsComfort  
Time TempWeatherWind HumidityBarometerVisibility
10:54 PM
Nov 23
43 °FLight rain. Fog.8 mph93%29.41 "Hg2 mi
9:54 PM45 °FLight rain. Fog.7 mph93%29.50 "Hg3 mi
8:54 PM45 °FLight rain. Fog.8 mph93%29.54 "Hg3 mi
7:54 PM44 °FLight rain. Fog.6 mph93%29.57 "Hg2 mi
6:54 PM44 °FLight rain. Fog.6 mph89%29.60 "Hg3 mi
5:54 PM46 °FFog.8 mph93%29.62 "Hg5 mi
4:54 PM47 °FLight rain. Fog.7 mph90%29.63 "Hg6 mi
3:54 PM49 °FLight rain. Overcast.8 mph84%29.65 "Hg10 mi
2:54 PM50 °FOvercast.9 mph77%29.68 "Hg10 mi
1:54 PM50 °FOvercast.9 mph77%29.70 "Hg10 mi
12:54 PM50 °FPartly sunny.12 mph77%29.72 "Hg9 mi
11:54 AM48 °FOvercast.10 mph86%29.76 "Hg7 mi
10:54 AM46 °FFog.14 mph96%29.80 "Hg4 mi
10:03 AM45 °FFog.12 mph97%29.78 "Hg3 mi
8:54 AM39 °FFog.3 mph100%29.81 "Hg0 mi
7:54 AM39 °FFog.No wind100%29.83 "Hg1 mi
7:03 AM38 °FFog.5 mph100%29.80 "Hg0 mi
6:54 AM38 °FFog.3 mph100%29.83 "Hg1 mi
5:54 AM38 °FFog.7 mph100%29.83 "Hg2 mi
4:54 AM38 °FFog.7 mph100%29.83 "Hg2 mi
3:54 AM36 °FFog.5 mph100%29.85 "Hg1 mi
3:02 AM36 °FFog.5 mph100%29.84 "Hg1 mi
1:54 AM39 °FFog.6 mph100%29.86 "Hg3 mi
12:54 AM38 °FFog.5 mph100%29.86 "Hg3 mi
Weather by CustomWeather, © 2014

See weather overviewHow to use our weather pages